Date,TemperatureHighF,TemperatureAvgF,TemperatureLowF,DewpointHighF,DewpointAvgF,DewpointLowF,HumidityHigh,HumidityAvg,HumidityLow,PressureMaxIn,PressureMinIn,WindSpeedMaxMPH,WindSpeedAvgMPH,GustSpeedMaxMPH,PrecipitationSumIn
2013-8-1,73,69,66,72,66,61,99,92,79,29.95,29.74,8,0,12,1.92
2013-8-2,83,73,63,69,65,60,99,79,47,29.86,29.74,13,1,13,0.02
2013-8-3,77,69,63,68,64,61,95,86,68,29.86,29.80,11,0,11,0.08
2013-8-4,80,69,59,63,59,54,99,73,43,29.92,29.79,12,1,12,0.00
2013-8-5,79,66,54,58,54,49,93,68,39,30.01,29.91,9,0,9,0.00
2013-8-6,78,66,54,64,58,52,98,79,52,30.02,29.95,10,1,10,0.00
2013-8-7,75,70,63,69,66,61,98,90,75,30.03,29.96,9,0,9,0.10
2013-8-8,85,76,68,77,71,67,98,86,65,29.97,29.89,14,1,14,0.16
2013-8-9,83,77,74,78,74,71,95,89,73,29.92,29.74,15,1,15,0.38
2013-8-10,85,74,66,73,66,62,98,78,49,29.97,29.81,4,1,13,0.00
2013-8-11,86,72,59,68,62,54,95,73,47,30.05,29.93,9,0,9,0.00
2013-8-12,87,74,67,70,66,62,97,78,44,29.94,29.83,9,0,9,0.00
2013-8-13,84,72,65,72,68,64,99,88,60,29.84,29.63,10,0,10,3.02
2013-8-14,74,65,55,67,53,47,93,68,48,29.99,29.69,14,2,16,0.00
2013-8-15,80,63,50,56,52,48,98,71,36,30.08,29.99,8,0,8,0.00
2013-8-16,82,65,50,60,54,49,98,71,34,30.12,30.04,8,0,8,0.00
2013-8-17,83,67,54,63,57,52,98,73,37,30.18,30.12,7,0,7,0.00
2013-8-18,75,66,61,64,61,58,94,83,59,30.17,30.07,7,0,7,0.02
2013-8-19,75,67,60,67,63,60,98,86,66,30.07,29.98,9,1,9,0.02
2013-8-20,88,72,61,70,65,61,99,81,47,30.06,29.99,9,0,9,0.00
2013-8-21,90,74,61,70,65,58,99,76,42,30.11,29.97,10,0,10,0.00
2013-8-22,81,75,69,74,71,67,96,88,70,29.99,29.81,12,0,12,0.44
2013-8-23,78,70,62,68,63,56,98,80,62,30.02,29.83,8,0,8,0.00
2013-8-24,84,68,56,59,55,48,89,64,33,30.26,30.02,10,1,10,0.00
2013-8-25,82,65,51,61,55,50,98,74,41,30.33,30.17,10,1,10,0.00
2013-8-26,85,72,60,68,62,55,90,71,51,30.17,29.85,13,1,13,0.08
2013-8-27,90,76,66,71,67,65,98,77,46,29.85,29.78,9,0,9,0.04
2013-8-28,74,70,67,73,69,65,99,97,91,29.82,29.75,6,0,6,1.40
2013-8-29,81,73,69,72,69,65,99,89,66,29.94,29.79,9,0,9,0.00
2013-8-30,83,73,66,72,68,64,95,84,68,29.95,29.79,11,1,11,0.00
2013-8-31,86,77,70,74,71,68,96,83,66,29.80,29.71,13,1,13,0.00